Starlink 1117

decayed
NORAD ID: 44952 Int'l Des: 2020-001 Owner: SPXS Country: US Constellation: starlink
LEOCIRCULAR
Gruppe

Über Starlink 1117

Beschreibung wird geladen...

Höhenverlauf

Altitude vs Time

uPlot chart will show altitude changes over time

Zweizeiliger Elementsatz

1 44952U 20001AQ 25151.89984605 .14040411 12452-4 34859-3 0 9995
2 44952 53.0270 93.1678 0006501 232.3413 236.9476 16.45645907298459
Epoch: 31. Mai 2025 • Age: 7376 hours

Aktueller Status

Position data unavailable
Startdatum 7. Jan. 2020
Alter 6.2 years
Verglühungsdatum 1. Juni 2025
Typ internet

Technische Details

Klassifizierung Payload
Masse 260.00 kg
Trockenmasse 248.00 kg
Gesamtmasse 260.00 kg
Länge 0.20 m
Durchmesser 2.80 m
Spannweite 9.00 m
Form Box + pan
Hersteller SPXS
Bus-Typ Starlink
Phasenstatus Unknown Transfer Status
Besitzer/Staat SPXS/US

Große Konstellationen

Loading constellations...